Regional Weather Roundup
Issued by NWS

Home | Current Version | Previous Version | Text Only | Print | Product List | Glossary Off
Versions: 1 2 3 4 5 6 7 8 9 10 11 12 13 14 15 16 17 18 19 20 21 22 23 24 25 26 27 28 29 30 31 32 33 34 35 36 37 38 39 40 41 42 43 44 45 46 47 48 49 50

000
ASUS43 KLOT 061506
RWRIL

ILLINOIS REGIONAL WEATHER ROUNDUP
NATIONAL WEATHER SERVICE CHICAGO/ROMEOVILLE IL
900 AM CST FRI MAR 06 2015

NOTE: "FAIR" INDICATES FEW OR NO CLOUDS BELOW 12,000 FEET WITH NO
SIGNIFICANT WEATHER AND/OR OBSTRUCTIONS TO VISIBILITY.

* THESE STATIONS ARE NOT UNDER NWS QUALITY CONTROL. THEY ALSO MAY NOT
  REPORT WEATHER SUCH AS PRECIPITATION OR FOG.

ILZ001-002-007-009-015-016-024-061600-
NORTHWEST ILLINOIS

CITY           SKY/WX    TMP DP  RH WIND       PRES   REMARKS
MOLINE         MOSUNNY   18   5  57 S12       30.30F WCI   5
STERLING*      SUNNY     14   5  67 S7        30.35F WCI   4
SAVANNA*       SUNNY     13   3  66 S16       30.31F WCI  -4
$$

ILZ003-004-008-010-011-017-018-061600-
NORTH CENTRAL ILLINOIS

CITY           SKY/WX    TMP DP  RH WIND       PRES   REMARKS
ROCKFORD       MOSUNNY    9   1  70 S13       30.36F WCI  -7
FREEPORT*      SUNNY      9   1  72 S15       30.32F WCI  -8
ROCHELLE*      MOSUNNY   10   4  74 S14       30.36F WCI  -5
DE KALB*       SUNNY      4  -2  75 S16       30.38S WCI -15
PERU*          MOSUNNY   13   4  68 S16       30.40F WCI  -3
$$

ILZ005-006-012>014-019>023-061600-
NORTHEAST ILLINOIS

CITY           SKY/WX    TMP DP  RH WIND       PRES   REMARKS
CHICAGO-OHARE  PTSUNNY   12   1  61 SW18G24   30.40F WCI  -6
CHICAGO-MIDWAY PTSUNNY   14   2  58 S14       30.43F WCI  -1
AURORA         SUNNY      8   0  69 S13       30.41F WCI  -8
LANSING*       SUNNY     10   1  68 SW12      30.47S WCI  -5
JOLIET*        MOSUNNY   13   3  65 S12G17    30.44F WCI  -1
WAUKEGAN       SUNNY     13   2  61 S15       30.36F WCI  -3
DUPAGE AIRPORT SUNNY      9   0  67 S15       30.40F WCI  -8
KANKAKEE*      SUNNY     11   3  71 S16       30.47F WCI  -6
WHEELING       SUNNY     14   1  56 SW13      30.41F WCI   0
MORRIS*        SUNNY     10   3  73 S14       30.44F WCI  -6
ROMEOVILLE*    SUNNY     12   3  68 S14       30.43F WCI  -3
NORTHERLY ISL    N/A     13   0  56 S16         N/A  WCI  -3
$$

LMZ740>746-061600-
SOUTHERN LAKE MICHIGAN

STATION/POSITION SKY/WX   TEMP    WIND        PRES    VSBY  WAVE
                          AIR SEA DIR/SP/G                  HT/PER
                          (F)     (DEG/KT/KT) (MB)    (MI)  (FT/S)
WAUKEGAN HARBOR            13                   N/A
HARRISON CRIB              12     190/ 21/ 25   N/A
BURNHAM HARBOR             14     190/  9/ 17   N/A
CALUMET HARBOR             11     180/ 13/ 16 1029.3F
MICHIGAN CITY               8     170/ 12/ 16   N/A
$$

ILZ025>027-034>036-040-047-049-050-058-095>099-061600-
WEST-CENTRAL ILLINOIS

CITY           SKY/WX    TMP DP  RH WIND       PRES   REMARKS
QUINCY         CLOUDY    22   9  57 S16       30.34F WCI   8
GALESBURG*     SUNNY     15   8  73 SE12      30.34F WCI   1
MACOMB*        MOSUNNY   16  10  77 S17       30.37F WCI   0
JACKSONVILLE*  MOSUNNY   19   9  64 S14G20    30.43F WCI   6
PITTSFIELD*    SUNNY     22  12  65 S10       30.41F WCI  11
$$

ILZ028>032-037-038-041>044-048-051>054-059>061-061600-
CENTRAL ILLINOIS

CITY           SKY/WX    TMP DP  RH WIND       PRES   REMARKS
PONTIAC        MOSUNNY   13   5  71 S17       30.45F WCI  -4
BLOOMINGTON    SUNNY     12   5  73 S17       30.44F WCI  -5
DECATUR        SUNNY     12   3  67 S15       30.49F WCI  -4
PEORIA         SUNNY     15   5  64 S16       30.42F WCI  -1
LACON*         SUNNY     15   4  60 S12       30.40F WCI   2
LINCOLN*       MOSUNNY   14   6  70 S14       30.49F WCI  -1
SPRINGFIELD    SUNNY     17   6  62 S17       30.46F WCI   1
TAYLORVILLE    SUNNY     14   5  67 S17       30.49F WCI  -3
$$

ILZ033-039-045-046-055>057-062-063-061600-
EAST-CENTRAL ILLINOIS

CITY           SKY/WX    TMP DP  RH WIND       PRES   REMARKS
CHAMPAIGN      SUNNY      9   2  73 S16       30.49F WCI  -8
DANVILLE*      SUNNY     10   6  84 S10       30.49F WCI  -4
RANTOUL*       SUNNY     12   6  77 S10       30.49F WCI  -2
MATTOON        SUNNY     11   2  67 S13G21    30.52F WCI  -4
PARIS*         SUNNY     13   6  74 S8        30.55S WCI   2
$$

ILZ079-100>102-061600-
SOUTHWEST ILLINOIS

CITY           SKY/WX    TMP DP  RH WIND       PRES   REMARKS
ALTON          SUNNY     21   9  58 S13       30.50F WCI   9
BELLEVILLE     SUNNY     20  12  69 VRB7      30.52F WCI  11
CAHOKIA*       SUNNY     22  12  65 S10       30.52F WCI  11
SPARTA*        SUNNY     18   7  62 S10G17    30.57S WCI   6
$$

ILZ064>066-069>071-074>076-080>082-084>086-088>090-092>094-061600-
SOUTH-CENTRAL ILLINOIS

CITY           SKY/WX    TMP DP  RH WIND       PRES   REMARKS
CARBONDALE     SUNNY     15   9  76 S8        30.61R WCI   4
CAIRO*         SUNNY     16  13  86 SE3       30.64R
EFFINGHAM*     SUNNY     15   2  56 S10G16    30.57F WCI   2
MARION         SUNNY     14  10  85 S7        30.61S WCI   4
MT. VERNON     SUNNY     16  10  79 S10       30.59R WCI   3
CENTRALIA*     SUNNY     18   7  63 S10       30.56S WCI   6
SALEM*         SUNNY     18   6  59 S10       30.56S WCI   6
METROPOLIS*    SUNNY     15  14  92 CALM      30.62S
$$

ILZ067-068-072-073-078-083-087-091-061600-
SOUTHEAST ILLINOIS

CITY           SKY/WX    TMP DP  RH WIND       PRES   REMARKS
LAWRENCEVILLE  SUNNY     11   6  81 S6        30.60R WCI   1
FLORA*         SUNNY     14   6  70 S9        30.58F WCI   2
FAIRFIELD*     SUNNY     12   7  79 S5        30.59S WCI   5
HARRISBURG*    SUNNY      8   6  90 CALM      30.62F
ROBINSON*      SUNNY     10   7  87 S3        30.60R
CARMI*         SUNNY     14  13  94 SW6       30.61S WCI   5
$$

ABBREVIATIONS USED IN REMARKS
   TC - TEMPERATURE IN CELSIUS
  WCI - WIND CHILL INDEX
   HX - HEAT INDEX
  VSB - VISIBILITY
$$



USA.gov is the U.S. government's official web portal to all federal, state and local government web resources and services.